When you browse on this site, cookies collect data to enhance your experience and personalize the content and advertising you see.
Visit our Privacy Policy to learn more. By continuing to use the site, you agree to this use of cookies and data.
  • In Sweden
  • List of Countries
  • For 7 days
  • Water Temperature
  • Weather Map
  • Weather Widgets
  • user-avatar
    Login

    Hourly Weather Champs-sur-Marne

    Today, 11 December, Wednesday

    Time Temperature Precipitation Wind Pressure Humidity
    00:00 +6°C° 0 mm 5 mps 754 mmHg 79%
    01:00 +6°C° 0.6 mm 5 mps 753 mmHg 81%
    02:00 +5°C° 0.6 mm 5 mps 753 mmHg 84%
    03:00 +5°C° 0.6 mm 5 mps 752 mmHg 86%
    04:00 +5°C° 0.5 mm 5 mps 752 mmHg 87%
    05:00 +5°C° 0.5 mm 4 mps 751 mmHg 88%
    06:00 +5°C° 0 mm 4 mps 752 mmHg 87%
    07:00 +5°C° 0.3 mm 3 mps 751 mmHg 88%
    08:00 +5°C° 0.3 mm 3 mps 751 mmHg 89%
    09:00 +6°C° 0.3 mm 2 mps 750 mmHg 90%
    10:00 +7°C° 0 mm 3 mps 750 mmHg 83%
    11:00 +8°C° 0 mm 3 mps 750 mmHg 75%
    12:00 +7°C° 0 mm 4 mps 750 mmHg 67%
    13:00 +7°C° 0 mm 4 mps 749 mmHg 67%
    14:00 +7°C° 0 mm 4 mps 749 mmHg 66%
    15:00 +7°C° 0 mm 4 mps 749 mmHg 65%
    16:00 +6°C° 0 mm 4 mps 748 mmHg 70%
    17:00 +5°C° 0 mm 4 mps 748 mmHg 75%
    18:00 +5°C° 0 mm 4 mps 748 mmHg 80%
    19:00 +5°C° 0.5 mm 4 mps 748 mmHg 82%
    20:00 +5°C° 0.5 mm 4 mps 748 mmHg 83%
    21:00 +4°C° 0.5 mm 4 mps 748 mmHg 85%
    22:00 +4°C° 0.1 mm 4 mps 748 mmHg 84%
    23:00 +4°C° 0.1 mm 4 mps 748 mmHg 83%

    Tomorrow, 12 December, Thursday

    Time Temperature Precipitation Wind Pressure Humidity
    00:00 +4°C° 0.1 mm 4 mps 748 mmHg 82%
    01:00 +3°C° 0 mm 4 mps 748 mmHg 82%
    02:00 +3°C° 0 mm 3 mps 748 mmHg 83%
    03:00 +3°C° 0 mm 3 mps 748 mmHg 83%
    04:00 +2°C° 0 mm 3 mps 748 mmHg 84%
    05:00 +2°C° 0 mm 3 mps 748 mmHg 85%
    06:00 +2°C° 0 mm 3 mps 748 mmHg 86%
    07:00 +1°C° 0 mm 4 mps 748 mmHg 86%
    08:00 +1°C° 0 mm 4 mps 747 mmHg 86%
    09:00 +1°C° 0 mm 4 mps 747 mmHg 86%
    10:00 +2°C° 0 mm 5 mps 746 mmHg 81%
    11:00 +3°C° 0 mm 5 mps 745 mmHg 76%
    12:00 +4°C° 0 mm 6 mps 744 mmHg 71%
    13:00 +4°C° 0 mm 6 mps 743 mmHg 74%
    14:00 +4°C° 0 mm 7 mps 741 mmHg 76%
    15:00 +4°C° 0 mm 7 mps 739 mmHg 79%
    16:00 +4°C° 0.9 mm 8 mps 738 mmHg 82%
    17:00 +4°C° 0.9 mm 8 mps 736 mmHg 85%
    18:00 +5°C° 0.9 mm 9 mps 735 mmHg 88%
    19:00 +5°C° 1.1 mm 8 mps 734 mmHg 89%
    20:00 +6°C° 1.1 mm 7 mps 733 mmHg 89%
    21:00 +7°C° 1.1 mm 6 mps 732 mmHg 90%
    22:00 +7°C° 0.6 mm 6 mps 731 mmHg 89%
    23:00 +8°C° 0.6 mm 7 mps 730 mmHg 89%

    Day after tomorrow, 13 December, Friday

    Time Temperature Precipitation Wind Pressure Humidity
    00:00 +8°C° 0.6 mm 7 mps 729 mmHg 88%
    01:00 +6°C° 1.8 mm 8 mps 729 mmHg 83%
    02:00 +6°C° 1.8 mm 8 mps 728 mmHg 77%
    03:00 +6°C° 1.8 mm 8 mps 728 mmHg 72%
    04:00 +5°C° 0.4 mm 8 mps 728 mmHg 72%
    05:00 +5°C° 0.4 mm 8 mps 729 mmHg 72%
    06:00 +4°C° 0.4 mm 7 mps 729 mmHg 72%
    07:00 +4°C° 0.1 mm 7 mps 730 mmHg 71%
    08:00 +4°C° 0.1 mm 7 mps 731 mmHg 70%
    09:00 +4°C° 0.1 mm 8 mps 732 mmHg 69%
    10:00 +4°C° 0 mm 8 mps 733 mmHg 68%
    11:00 +5°C° 0 mm 8 mps 733 mmHg 67%
    12:00 +5°C° 0 mm 8 mps 734 mmHg 66%
    13:00 +5°C° 0 mm 8 mps 735 mmHg 68%
    14:00 +5°C° 0 mm 8 mps 735 mmHg 71%
    15:00 +5°C° 0 mm 7 mps 736 mmHg 73%
    16:00 +5°C° 0 mm 7 mps 737 mmHg 74%
    17:00 +7°C° 0 mm 6 mps 738 mmHg 74%
    18:00 +7°C° 0 mm 6 mps 738 mmHg 75%
    19:00 +7°C° 0 mm 6 mps 739 mmHg 76%
    20:00 +5°C° 0 mm 6 mps 740 mmHg 77%
    21:00 +6°C° 0 mm 5 mps 741 mmHg 78%
    22:00 +6°C° 0 mm 5 mps 741 mmHg 79%
    23:00 +4°C° 0 mm 6 mps 740 mmHg 81%

    14 December, Saturday

    Time Temperature Precipitation Wind Pressure Humidity
    00:00 +4°C° 0 mm 6 mps 740 mmHg 82%
    01:00 +5°C° 0.4 mm 6 mps 740 mmHg 84%
    02:00 +6°C° 0.4 mm 7 mps 739 mmHg 86%
    03:00 +8°C° 0.4 mm 7 mps 739 mmHg 88%
    04:00 +8°C° 0.3 mm 7 mps 739 mmHg 88%
    05:00 +9°C° 0.3 mm 6 mps 740 mmHg 87%
    06:00 +9°C° 0.3 mm 5 mps 740 mmHg 86%
    07:00 +8°C° 0 mm 4 mps 741 mmHg 83%
    08:00 +8°C° 0 mm 4 mps 741 mmHg 80%
    09:00 +7°C° 0 mm 4 mps 742 mmHg 76%
    10:00 +8°C° 0 mm 4 mps 742 mmHg 73%
    11:00 +9°C° 0 mm 5 mps 742 mmHg 69%
    12:00 +10°C° 0 mm 5 mps 742 mmHg 66%
    13:00 +10°C° 0.1 mm 6 mps 742 mmHg 71%
    14:00 +10°C° 0.1 mm 6 mps 742 mmHg 75%
    15:00 +11°C° 0.1 mm 7 mps 742 mmHg 80%
    16:00 +10°C° 0.1 mm 6 mps 742 mmHg 78%
    17:00 +9°C° 0.1 mm 5 mps 743 mmHg 75%
    18:00 +10°C° 0.1 mm 4 mps 743 mmHg 73%
    19:00 +8°C° 0 mm 4 mps 744 mmHg 74%
    20:00 +8°C° 0 mm 4 mps 744 mmHg 75%
    21:00 +8°C° 0 mm 4 mps 744 mmHg 76%
    22:00 +8°C° 0.1 mm 4 mps 744 mmHg 79%
    23:00 +7°C° 0.1 mm 4 mps 744 mmHg 82%

    15 December, Sunday

    Time Temperature Precipitation Wind Pressure Humidity
    00:00 +7°C° 0.1 mm 4 mps 744 mmHg 85%
    01:00 +7°C° 0 mm 4 mps 743 mmHg 85%
    02:00 +7°C° 0 mm 5 mps 743 mmHg 84%
    03:00 +7°C° 0 mm 5 mps 743 mmHg 83%
    04:00 +7°C° 0 mm 6 mps 743 mmHg 77%
    05:00 +8°C° 0 mm 7 mps 744 mmHg 71%
    06:00 +7°C° 0 mm 8 mps 745 mmHg 66%
    07:00 +6°C° 0 mm 8 mps 746 mmHg 62%
    08:00 +5°C° 0 mm 8 mps 747 mmHg 59%
    09:00 +5°C° 0 mm 8 mps 748 mmHg 56%
    10:00 +5°C° 0 mm 7 mps 749 mmHg 55%
    11:00 +6°C° 0 mm 7 mps 749 mmHg 54%
    12:00 +6°C° 0 mm 7 mps 750 mmHg 54%
    13:00 +7°C° 0 mm 6 mps 750 mmHg 56%
    14:00 +7°C° 0 mm 5 mps 750 mmHg 59%
    15:00 +6°C° 0 mm 4 mps 750 mmHg 61%
    16:00 +7°C° 0 mm 3 mps 750 mmHg 66%
    17:00 +7°C° 0 mm 3 mps 751 mmHg 72%
    18:00 +5°C° 0 mm 3 mps 751 mmHg 77%
    19:00 +5°C° 0 mm 3 mps 750 mmHg 79%
    20:00 +7°C° 0 mm 3 mps 750 mmHg 82%
    21:00 +6°C° 0 mm 4 mps 750 mmHg 85%
    22:00 +6°C° 0.1 mm 4 mps 750 mmHg 86%
    23:00 +6°C° 0.1 mm 4 mps 750 mmHg 88%

    16 December, Monday

    Time Temperature Precipitation Wind Pressure Humidity
    00:00 +6°C° 0.1 mm 4 mps 750 mmHg 89%
    01:00 +7°C° 0 mm 3 mps 750 mmHg 88%
    02:00 +7°C° 0 mm 3 mps 750 mmHg 86%
    03:00 +7°C° 0 mm 3 mps 749 mmHg 85%
    04:00 +7°C° 0.2 mm 3 mps 749 mmHg 87%
    05:00 +7°C° 0.2 mm 3 mps 749 mmHg 88%
    06:00 +7°C° 0.2 mm 3 mps 748 mmHg 89%
    07:00 +7°C° 1.2 mm 3 mps 748 mmHg 91%
    08:00 +7°C° 1.2 mm 3 mps 748 mmHg 92%
    09:00 +7°C° 1.2 mm 3 mps 748 mmHg 94%
    10:00 +7°C° 1.4 mm 3 mps 747 mmHg 93%
    11:00 +7°C° 1.4 mm 3 mps 747 mmHg 93%
    12:00 +8°C° 1.4 mm 3 mps 747 mmHg 93%
    13:00 +8°C° 0.5 mm 3 mps 746 mmHg 92%
    14:00 +8°C° 0.5 mm 3 mps 746 mmHg 91%
    15:00 +9°C° 0.5 mm 3 mps 745 mmHg 90%
    16:00 +9°C° 0.7 mm 3 mps 745 mmHg 91%
    17:00 +9°C° 0.7 mm 3 mps 745 mmHg 93%
    18:00 +9°C° 0.7 mm 3 mps 744 mmHg 94%
    19:00 +9°C° 1.5 mm 2 mps 744 mmHg 95%
    20:00 +9°C° 1.5 mm 2 mps 744 mmHg 96%
    21:00 +9°C° 1.5 mm 2 mps 743 mmHg 97%
    22:00 +9°C° 1.2 mm 3 mps 743 mmHg 96%
    23:00 +9°C° 1.2 mm 3 mps 743 mmHg 95%
    Show more